2024/01/29 00:00:00,69.4,-2.5
2024/01/29 00:10:00,69.3,-2.4
2024/01/29 00:20:00,69.2,-2.2
2024/01/29 00:30:00,69.2,-2.1
2024/01/29 00:40:00,69.2,-2.2
2024/01/29 00:50:00,69.2,-2.0
2024/01/29 01:00:00,69.1,-2.1
2024/01/29 01:10:00,69.0,-2.0
2024/01/29 01:20:00,68.9,-2.3
2024/01/29 01:30:00,68.9,-2.1
2024/01/29 01:40:00,69.0,-2.1
2024/01/29 01:50:00,69.0,-1.9
2024/01/29 02:00:00,68.9,-2.2
2024/01/29 02:10:00,68.7,-2.1
2024/01/29 02:20:00,68.6,-2.3
2024/01/29 02:30:00,68.5,-2.4
2024/01/29 02:40:00,68.4,-2.2
2024/01/29 02:50:00,68.5,-1.9
2024/01/29 03:00:00,68.6,-2.0
2024/01/29 03:10:00,68.5,-2.1
2024/01/29 03:20:00,68.6,-1.8
2024/01/29 03:30:00,68.6,-1.9
2024/01/29 03:40:00,68.5,-2.0
2024/01/29 03:50:00,68.4,-1.8
2024/01/29 04:00:00,68.3,-1.9
2024/01/29 04:10:00,68.2,-1.8
2024/01/29 04:20:00,68.2,-1.9
2024/01/29 04:30:00,68.2,-2.1
2024/01/29 04:40:00,68.2,-2.3
2024/01/29 04:50:00,68.1,-2.7
2024/01/29 05:00:00,68.0,-2.4
2024/01/29 05:10:00,67.9,-2.6
2024/01/29 05:20:00,67.8,-3.1
2024/01/29 05:30:00,67.7,-3.1
2024/01/29 05:40:00,67.6,-3.1
2024/01/29 05:50:00,67.6,-3.3
2024/01/29 06:00:00,67.6,-3.5
2024/01/29 06:10:00,67.5,-3.5
2024/01/29 06:20:00,67.4,-3.4
2024/01/29 06:30:00,67.3,-3.0
2024/01/29 06:40:00,67.2,-3.3
2024/01/29 06:50:00,67.2,-3.7
2024/01/29 07:00:00,67.3,-3.9
2024/01/29 07:10:00,67.2,-3.8
2024/01/29 07:20:00,67.2,-3.8
2024/01/29 07:30:00,67.1,-3.8
2024/01/29 07:40:00,67.0,-3.6
2024/01/29 07:50:00,66.9,-3.4
2024/01/29 08:00:00,66.9,-3.2
2024/01/29 08:10:00,66.8,-3.0
2024/01/29 08:20:00,66.9,-2.5
2024/01/29 08:30:00,67.0,-2.1
2024/01/29 08:40:00,66.9,-2.2
2024/01/29 08:50:00,66.6,-2.3
2024/01/29 09:00:00,66.6,-1.8
2024/01/29 09:10:00,66.5,-0.9
2024/01/29 09:20:00,66.4,-0.9
2024/01/29 09:30:00,66.3,-0.3
2024/01/29 09:40:00,66.6, 0.3
2024/01/29 09:50:00,67.4, 0.9
2024/01/29 10:00:00,60.3, 1.0
2024/01/29 10:10:00,60.0, 1.4
2024/01/29 10:20:00,59.7, 1.5
2024/01/29 10:30:00,60.2, 1.8
2024/01/29 10:40:00,60.9, 2.1
2024/01/29 10:50:00,60.6, 2.3
2024/01/29 11:00:00,60.7, 2.3
2024/01/29 11:10:00,60.6, 2.5
2024/01/29 11:20:00,60.5, 2.0
2024/01/29 11:30:00,60.5, 2.1
2024/01/29 11:40:00,60.4, 2.5
2024/01/29 11:50:00,60.4, 2.7
2024/01/29 12:00:00,60.2, 2.7
2024/01/29 12:10:00,60.1, 3.4
2024/01/29 12:20:00,59.9, 2.6
2024/01/29 12:30:00,59.7, 2.6
2024/01/29 12:40:00,59.6, 2.6
2024/01/29 12:50:00,59.5, 2.6
2024/01/29 13:00:00,59.2, 1.9
2024/01/29 13:10:00,59.2, 2.5
2024/01/29 13:20:00,58.9, 2.5
2024/01/29 13:30:00,58.8, 2.6
2024/01/29 13:40:00,58.6, 2.7
2024/01/29 13:50:00,58.6, 2.0
2024/01/29 14:00:00,58.5, 2.8
2024/01/29 14:10:00,58.3, 2.5
2024/01/29 14:20:00,57.9, 2.1
2024/01/29 14:30:00,57.8, 1.9
2024/01/29 14:40:00,57.8, 1.4
2024/01/29 14:50:00,58.2, 1.2
2024/01/29 15:00:00,58.1, 1.0
2024/01/29 15:10:00,57.9, 1.1
2024/01/29 15:20:00,58.0, 1.2
2024/01/29 15:30:00,58.0, 1.2
2024/01/29 15:40:00,58.1, 0.8
2024/01/29 15:50:00,58.3, 1.0
2024/01/29 16:00:00,58.4, 0.8
2024/01/29 16:10:00,58.3, 0.4
2024/01/29 16:20:00,58.4, 0.9
2024/01/29 16:30:00,58.4, 0.4
2024/01/29 16:40:00,58.4, 0.2
2024/01/29 16:50:00,58.4, 0.1
2024/01/29 17:00:00,58.4, 0.1
2024/01/29 17:10:00,58.4,-0.0
2024/01/29 17:20:00,58.3,-0.0
2024/01/29 17:30:00,58.2, 0.1
2024/01/29 17:40:00,58.2,-0.8
2024/01/29 17:50:00,58.2,-0.3
2024/01/29 18:00:00,58.2,-0.5
2024/01/29 18:10:00,58.1,-0.6
2024/01/29 18:20:00,58.1,-0.1
2024/01/29 18:30:00,58.0,-0.3
2024/01/29 18:40:00,58.0,-0.9
2024/01/29 18:50:00,57.9,-0.7
2024/01/29 19:00:00,57.9,-0.7
2024/01/29 19:10:00,57.9,-0.4
2024/01/29 19:20:00,57.9,-0.6
2024/01/29 19:30:00,57.9,-1.4
2024/01/29 19:40:00,57.8,-1.0
2024/01/29 19:50:00,57.7,-1.0
2024/01/29 20:00:00,57.7,-0.9
2024/01/29 20:10:00,57.7,-0.9
2024/01/29 20:20:00,57.6,-1.3
2024/01/29 20:30:00,57.6,-0.9
2024/01/29 20:40:00,57.5,-1.0
2024/01/29 20:50:00,57.5,-0.8
2024/01/29 21:00:00,57.4,-0.7
2024/01/29 21:10:00,57.4,-1.0
2024/01/29 21:20:00,57.3,-0.9
2024/01/29 21:30:00,57.2,-0.8
2024/01/29 21:40:00,57.1,-0.9
2024/01/29 21:50:00,57.1,-1.0
2024/01/29 22:00:00,57.0,-0.9
2024/01/29 22:10:00,56.9,-1.1
2024/01/29 22:20:00,56.9,-1.5
2024/01/29 22:30:00,56.8,-1.0
2024/01/29 22:40:00,56.8,-1.0
2024/01/29 22:50:00,56.8,-1.0
2024/01/29 23:00:00,56.7,-1.2
2024/01/29 23:10:00,56.7,-1.0
2024/01/29 23:20:00,56.6,-1.0
2024/01/29 23:30:00,56.6,-1.0
2024/01/29 23:40:00,56.6,-1.2
2024/01/29 23:50:00,56.5,-1.0
